This is the latest recevied weather packets stored in our database for station/object TG9ADI-20. If no packets are shown the sender has not sent any weather packets the latest 10 day(s).
| Time | Temp. | Humidity | Pressure | Rain* | Wind** | Luminosity | Snow |
|---|---|---|---|---|---|---|---|
| 1778400256 | 17.22° C | 98% | 1013 hPa | 0 mm | - | - | - |
| 1778399656 | 17.78° C | 98% | 1013 hPa | 0 mm | - | - | - |
| 1778399055 | 18.89° C | 96% | 1013 hPa | 0 mm | - | - | - |
| 1778398454 | 18.89° C | 96% | 1013 hPa | 0 mm | - | - | - |
| 1778397854 | 19.44° C | 97% | 1013 hPa | 0 mm | - | - | - |
| 1778397253 | 19.44° C | 97% | 1013 hPa | 0 mm | - | - | - |
| 1778396653 | 18.89° C | 96% | 1013 hPa | 0 mm | - | - | - |
| 1778396052 | 18.89° C | 96% | 1013 hPa | 0 mm | - | - | - |
| 1778395451 | 18.89° C | 96% | 1013 hPa | 0 mm | - | - | - |
| 1778394851 | 19.44° C | 97% | 1014 hPa | 0 mm | - | - | - |
| 1778394250 | 18.89° C | 96% | 1013 hPa | 0 mm | - | - | - |
| 1778393649 | 18.89° C | 95% | 1013 hPa | 0 mm | - | - | - |
| 1778393049 | 18.33° C | 96% | 1014 hPa | 0.25 mm | - | - | - |
| 1778392448 | 20° C | 93% | 1014 hPa | 0 mm | - | - | - |
| 1778391847 | 17.78° C | 96% | 1014 hPa | 0.25 mm | - | - | - |
| 1778391247 | 18.33° C | 96% | 1013 hPa | 0.25 mm | - | - | - |
| 1778390646 | 18.89° C | 95% | 1014 hPa | 0.25 mm | - | - | - |
| 1778390046 | 20° C | 93% | 1014 hPa | 0 mm | - | - | - |
| 1778389445 | 20° C | 93% | 1014 hPa | 0 mm | - | - | - |
| 1778388844 | 18.89° C | 96% | 1014 hPa | 0.25 mm | - | - | - |
| 1778388244 | 18.33° C | 96% | 1014 hPa | 0 mm | - | - | - |
| 1778387643 | 18.33° C | 96% | 1014 hPa | 0 mm | - | - | - |
| 1778387043 | 18.33° C | 96% | 1014 hPa | 0 mm | - | - | - |
| 1778386442 | 20° C | 93% | 1014 hPa | 0 mm | - | - | - |
| 1778385841 | 17.78° C | 96% | 1013 hPa | 0 mm | - | - | - |
* Rain latest hour (hover to see other rain measurements)
** Current wind speed in m/s (hover to see current wind gust speed)